Location: Cz?stochówka
(50.8142°N, 19.0915°E)
Time: 15:43:09
(UTC+00:00)

SeaSat 1 - Pass Details

Date: 13 January 2026
Orbit: 737 x 740 km, 108.0° (Epoch: 18 February)

Event Time Altitude Azimuth Distance (km) Brightness Sun altitude
Rises 04:15:48 0° 37° (NE) 3,185 6.1 -22.1°
Reaches altitude 10° 04:18:18 10° 47° (NE) 2,257 5.4 -21.7°
Maximum altitude 04:22:40 32° 110° (ESE) 1,265 4.3 -21.1°
Drops below altitude 10° 04:27:01 10° 173° (S) 2,243 5.1 -20.4°
Sets 04:29:29 0° 183° (S) 3,162 5.8 -20.0°
